Garrison, ND

3:34 PM CDT on April 25, 2018 (GMT -0500)
Garrison

Weather History for KN60 - February, 2013

Change the Weather History Date:

Wednesday, February 6, 2013

  Actual Average Record
Temperature  
Mean Temperature 23 °F -  
Max Temperature 31 °F - 51 °F (2016)
Min Temperature 15 °F - -20 °F (2004)
Degree Days  
Heating Degree Days 42    
Month to date heating degree days 285  
Cooling Degree Days 0    
Moisture  
Dew Point 19 °F    
Average Humidity 83    
Maximum Humidity 92    
Minimum Humidity 74    
Precipitation  
Precipitation 0.00 in - 0.06 in (2017)
Month to date precipitation 0.25  
Year to date precipitation 0.75  
Sea Level Pressure  
Sea Level Pressure 29.91 in    
Wind  
Wind Speed 8 mph (East)    
Max Wind Speed 17 mph    
Max Gust Speed 21 mph    
T = Trace of Precipitation, MM = Missing Value Source: NWS Daily Summary

Daily Weather History Graph

Daily Weather History Graph

Search for Another Location

Airport or City:

Astronomy

Feb. 06, 2013 Rise Set
Actual Time 8:05 AM CST 5:55 PM CST
Civil Twilight 7:32 AM CST 6:27 PM CST
Nautical Twilight 6:55 AM CST 7:04 PM CST
Astronomical Twilight 6:20 AM CST 7:40 PM CST
Moon 4:59 AM CST (2/6) 2:07 PM CST (2/6)
Length of Visible Light 10h 55m
Length of Day
9h 50m
Waning Crescent, 17% of the Moon is Illuminated
Feb 6
Waning Crescent
Feb 10
New
Feb 17
First Quarter
Feb 25
Full
Mar 4
Last Quarter

Hourly Weather History & Observations

Time (CST) Temp. Windchill Dew Point Humidity Pressure Visibility Wind Dir Wind Speed Gust Speed Precip Events Conditions
12:52 AM 24.1 °F 12.5 °F 17.1 °F 75% 29.88 in - SE 12.7 mph - N/A   Unknown
1:52 AM 24.1 °F 13.1 °F 18.0 °F 77% 29.85 in - SE 11.5 mph - N/A   Unknown
2:52 AM 24.1 °F 12.0 °F 19.0 °F 81% 29.83 in - SE 13.8 mph - N/A   Unknown
3:52 AM 24.1 °F 13.1 °F 19.0 °F 81% 29.81 in - SE 11.5 mph - N/A   Unknown
4:52 AM 21.9 °F 11.0 °F 19.0 °F 89% 29.79 in - SE 10.4 mph - N/A   Unknown
5:52 AM 19.9 °F 12.1 °F 17.1 °F 89% 29.79 in - SE 5.8 mph - N/A   Unknown
6:52 AM 19.9 °F 9.3 °F 18.0 °F 92% 29.76 in - SSE 9.2 mph - N/A   Unknown
7:52 AM 18.0 °F - 16.0 °F 92% 29.79 in - Calm Calm - N/A   Unknown
8:52 AM 19.0 °F 12.3 °F 17.1 °F 92% 29.78 in - SE 4.6 mph - N/A   Unknown
9:52 AM 21.0 °F - 19.9 °F 96% 29.79 in - Calm Calm - N/A   Unknown
10:52 AM 25.0 °F - 21.0 °F 85% 29.80 in - Calm Calm - N/A   Unknown
11:52 AM 28.0 °F 22.8 °F 21.9 °F 78% 29.82 in - NW 4.6 mph - N/A   Unknown
12:52 PM 28.9 °F 22.8 °F 23.0 °F 78% 29.83 in - NW 5.8 mph - N/A   Unknown
1:52 PM 28.0 °F 15.7 °F 23.0 °F 81% 29.85 in - North 17.3 mph - N/A   Unknown
2:52 PM 26.1 °F 15.6 °F 23.0 °F 88% 29.89 in - NNE 11.5 mph 17.3 mph N/A   Unknown
3:52 PM 26.1 °F 19.4 °F 23.0 °F 88% 29.93 in - North 5.8 mph - N/A   Unknown
4:52 PM 25.0 °F 16.3 °F 21.9 °F 88% 29.96 in - NNE 8.1 mph - N/A   Unknown
5:52 PM 24.1 °F 16.0 °F 23.0 °F 96% 30.00 in - NNE 6.9 mph - N/A   Unknown
6:52 PM 23.0 °F 15.8 °F 21.9 °F 96% 30.04 in - NE 5.8 mph - N/A   Unknown
7:52 PM 21.9 °F 13.4 °F 19.9 °F 92% 30.08 in - ENE 6.9 mph - N/A   Unknown
8:52 PM 19.9 °F 12.1 °F 19.0 °F 96% 30.11 in - ENE 5.8 mph - N/A   Unknown
9:52 PM 18.0 °F 4.2 °F 17.1 °F 96% 30.12 in - ENE 13.8 mph - N/A   Unknown
10:52 PM 17.1 °F 7.6 °F 16.0 °F 96% 30.14 in - East 6.9 mph - N/A   Unknown
11:52 PM 16.0 °F 2.9 °F 14.0 °F 92% 30.15 in - East 11.5 mph - N/A   Unknown